Location: Aalsum
(53.3404°N, 6.0062°E)
Time: 03:38:31
(UTC+00:00)

Cosmos 1726 Rocket - Pass Details

Date: 28 January 2023
Orbit: 602 x 627 km, 82.5° (Epoch: 24 March)

Event Time Altitude Azimuth Distance (km) Brightness Sun altitude
Rises 18:59:52 0° 346° (NNW) 2,876 7.2 -25.0°
Reaches altitude 10° 19:02:06 10° 344° (NNW) 1,965 6.3 -25.3°
Maximum altitude 19:06:24 65° 263° (W) 666 3.8 -25.9°
Enters shadow 19:06:35 64° 246° (WSW) 671 3.8 -26.0°
